Location: Unspecified
(0.0000°N, 0.0000°E)
Time: 18:10:47
(UTC+00:00)

Vanguard 2 Rocket - Pass Details

Date: 23 January 2020
Orbit: 554 x 3327 km, 32.9° (Epoch: 20 February)

Event Time Altitude Azimuth Distance (km) Brightness Sun altitude
Rises 14:01:42 0° 296° (WNW) 6,009 11.3 56.8°
Reaches altitude 10° 14:05:13 10° 293° (WNW) 5,295 11.2 56.1°
Maximum altitude 14:22:19 64° 215° (SW) 3,483 11.8 52.6°
Drops below altitude 10° 14:42:19 10° 136° (SE) 6,025 11.1 48.3°
Sets 14:46:42 0° 132° (SE) 6,835 11.2 47.3°
